Regional Weather Roundup
Issued by NWS Little Rock, AR

Home | Current Version | Previous Version | Graphics & Text | Print | Product List | Glossary On
Versions: 1 2 3 4 5 6 7 8 9 10 11 12 13 14 15 16 17 18 19 20 21 22 23 24 25 26 27 28 29 30 31 32 33 34 35 36 37 38 39 40 41 42 43 44 45 46 47 48 49 50
000
ASUS44 KLZK 161105
RWRLZK

WEATHER ROUNDUP FOR ARKANSAS
NATIONAL WEATHER SERVICE LITTLE ROCK AR
600 AM CDT TUE SEP 16 2014

NOTE: "FAIR" INDICATES FEW OR NO CLOUDS BELOW 12,000 FEET WITH NO
SIGNIFICANT WEATHER AND/OR OBSTRUCTIONS TO VISIBILITY.

ARZ001-003-010-029-161200-
NORTHWEST ARKANSAS

CITY           SKY/WX    TMP DP  RH WIND       PRES   REMARKS
FAYETTEVILLE   CLOUDY    65  65 100 CALM      30.16S
FORT SMITH     PTCLDY    66  65  96 CALM      30.13S FOG
HARRISON       CLOUDY    67  67 100 N3        30.17S
BENTONVILLE    CLOUDY    68  64  88 CALM      30.16S
ROGERS         CLOUDY    68  65  90 N3        30.17S
SILOAM SPGS    CLOUDY    70  64  83 CALM      30.17S
HIGHFILL       CLOUDY    68  67  96 CALM      30.16S
SPRINGDALE     CLOUDY    70  68  94 SE5       30.18
$$

ARZ004-005-016-161200-
NORTH CENTRAL ARKANSAS

CITY           SKY/WX    TMP DP  RH WIND       PRES   REMARKS
BATESVILLE     CLOUDY    66  64  94 CALM      30.13S
FLIPPIN        CLOUDY    68  63  83 CALM      30.15S
MTN HOME       CLOUDY    67  65  93 NE6       30.15S
$$

ARZ040-041-161200-
WEST CENTRAL ARKANSAS

CITY           SKY/WX    TMP DP  RH WIND       PRES   REMARKS
MENA             N/A     70  70 100 CALM        N/A
MOUNT IDA      CLOUDY    69  67  93 CALM      30.12R FOG
$$

ARZ009-017-025-026-028-161200-
NORTHEAST ARKANSAS

CITY           SKY/WX    TMP DP  RH WIND       PRES   REMARKS
CORNING          N/A     66  64  94 N9        30.15R
JONESBORO      CLOUDY    69  67  93 NE6       30.12R
NEWPORT        PTCLDY    67  66  96 NE8       30.13S
WALNUT RIDGE   CLOUDY    61  61 100 NE7       30.13R
BLYTHEVILLE    CLOUDY    67  66  97 N8        30.12S
$$

ARZ022-023-033-042-044-161200-
CENTRAL ARKANSAS

CITY           SKY/WX    TMP DP  RH WIND       PRES   REMARKS
LITTLE ROCK    CLOUDY    72  66  81 NW3       30.12R
N LITTLE ROCK    N/A     70  69  94 NW7       30.12R
JACKSONVILLE   CLOUDY    69  68  95 CALM      30.11S
SEARCY         PTCLDY    67  66  96 CALM      30.13R
HOT SPRINGS    CLOUDY    70  68  93 CALM      30.13S
RUSSELLVILLE   CLEAR     67  65  93 CALM      30.13R FOG
CLINTON        FOG       64  64 100 CALM      30.15R VSB<1/4
$$

ARZ036-161200-
EAST ARKANSAS

CITY           SKY/WX    TMP DP  RH WIND       PRES   REMARKS
WEST MEMPHIS   PTCLDY    66  66 100 CALM      30.10R
$$

ARZ050-053-066-070-073-161200-
SOUTHWEST ARKANSAS

CITY           SKY/WX    TMP DP  RH WIND       PRES   REMARKS
ARKADELPHIA    FAIR      69  69 100 CALM      30.12S FOG
CAMDEN         CLOUDY    68  66  94 CALM      30.11F FOG
TEXARKANA      CLOUDY    70  69  97 NE5       30.12S FOG
EL DORADO      CLOUDY    69  68  96 CALM      30.11S
DE QUEEN       CLOUDY    69  68  96 CALM      30.11R FOG
$$

ARZ056-057-069-161200-
SOUTHEAST ARKANSAS

CITY           SKY/WX    TMP DP  RH WIND       PRES   REMARKS
PINE BLUFF     CLOUDY    70  68  93 CALM      30.12R
STUTTGART      CLOUDY    70  66  88 NE3       30.11S
MONTICELLO     CLOUDY    70  67  90 NW3       30.11R

$$




USA.gov is the U.S. government's official web portal to all federal, state and local government web resources and services.